Skagway, AK

8:08 PM AKDT on April 26, 2017 (GMT -0800)
Skagway

Weather History for PAGY - July, 2013

Change the Weather History Date:

Saturday, July 27, 2013

  Actual Average Record
Temperature  
Mean Temperature 56 °F -  
Max Temperature 62 °F 63 °F 85 °F (1982)
Min Temperature 51 °F 50 °F 40 °F (1967)
Degree Days  
Heating Degree Days 8    
Growing Degree Days 6 (Base 50)    
Moisture  
Dew Point 52 °F    
Average Humidity 83    
Maximum Humidity 100    
Minimum Humidity 67    
Precipitation  
Precipitation 0.00 in - - ()
Sea Level Pressure  
Sea Level Pressure 30.26 in    
Wind  
Wind Speed 2 mph (WSW)    
Max Wind Speed 10 mph    
Max Gust Speed -    
Visibility 9 miles    
Events Rain    
Averages and records for this station are not official NWS values.
T = Trace of Precipitation, MM = Missing Value Source: NWS Daily Summary

Daily Weather History Graph

Daily Weather History Graph

Search for Another Location

Airport or City:

Trip Planner

Search our weather history database for the weather conditions in past years. The results will help you decide how hot, cold, wet, or windy it might be!

Date:

Astronomy

Jul. 27, 2013 Rise Set
Actual Time 4:35 AM AKDT 9:38 PM AKDT
Civil Twilight 3:33 AM AKDT 10:39 PM AKDT
Nautical Twilight 1:40 AM AKDT 12:35 AM AKDT
Astronomical Twilight Sun does not set Sun does not set
Moon 10:38 PM AKDT 12:10 PM AKDT
Length of Visible Light 19h 06m
Length of Day
17h 03m
Waning Gibbous, 69% of the Moon is Illuminated
Jul 27
Waning Gibbous
Jul 29
Last Quarter
Aug 6
New
Aug 14
First Quarter
Aug 20
Full

Hourly Weather History & Observations

Time (AKDT) Temp. Dew Point Humidity Pressure Visibility Wind Dir Wind Speed Gust Speed Precip Events Conditions
12:53 AM 57.0 °F 52.0 °F 83% 30.29 in 10.0 mi NNE 3.5 mph - N/A   Overcast
1:53 AM 55.9 °F 52.0 °F 87% 30.30 in 10.0 mi Calm Calm - N/A   Overcast
2:53 AM 57.0 °F 52.0 °F 83% 30.30 in 10.0 mi Calm Calm - N/A   Overcast
3:53 AM 55.0 °F 51.1 °F 86% 30.30 in 10.0 mi Calm Calm - 0.00 in Rain Light Rain
4:25 AM 51.8 °F 51.8 °F 100% 30.30 in 1.8 mi Calm Calm - 0.00 in   Overcast
4:35 AM 53.6 °F 51.8 °F 94% 30.31 in 3.0 mi Calm Calm - 0.00 in   Overcast
4:53 AM 55.0 °F 52.0 °F 89% 30.30 in 10.0 mi Calm Calm - 0.00 in   Overcast
5:45 AM 53.6 °F 51.8 °F 94% 30.30 in 10.0 mi Calm Calm - N/A   Overcast
5:53 AM 53.1 °F 51.1 °F 93% 30.31 in 10.0 mi Calm Calm - N/A   Overcast
6:53 AM 52.0 °F 50.0 °F 93% 30.30 in 10.0 mi Calm Calm - N/A   Overcast
7:53 AM 54.0 °F 51.1 °F 90% 30.32 in 10.0 mi Calm Calm - N/A   Overcast
8:53 AM 55.9 °F 52.0 °F 87% 30.30 in 10.0 mi Calm Calm - N/A   Overcast
9:53 AM 55.0 °F 51.1 °F 86% 30.30 in 10.0 mi Calm Calm - N/A   Overcast
10:53 AM 55.9 °F 51.1 °F 84% 30.28 in 10.0 mi Calm Calm - N/A   Overcast
11:53 AM 59.0 °F 52.0 °F 78% 30.27 in 10.0 mi Calm Calm - N/A   Overcast
12:53 PM 57.9 °F 51.1 °F 78% 30.26 in 10.0 mi SW 4.6 mph - N/A   Overcast
1:53 PM 57.9 °F 51.1 °F 78% 30.25 in 10.0 mi WSW 4.6 mph - N/A   Overcast
2:53 PM 57.9 °F 51.1 °F 78% 30.22 in 10.0 mi SW 6.9 mph - N/A   Partly Cloudy
3:53 PM 57.0 °F 51.1 °F 81% 30.21 in 10.0 mi SW 10.4 mph - N/A   Scattered Clouds
4:53 PM 60.1 °F 52.0 °F 75% 30.19 in 10.0 mi WSW 8.1 mph - N/A   Partly Cloudy
5:53 PM 61.0 °F 52.0 °F 72% 30.17 in 10.0 mi WSW 10.4 mph - N/A   Mostly Cloudy
6:53 PM 61.0 °F 52.0 °F 72% 30.17 in 10.0 mi WSW 9.2 mph - N/A   Clear
7:53 PM 62.1 °F 51.1 °F 67% 30.18 in 10.0 mi WSW 6.9 mph - N/A   Clear
8:53 PM 60.1 °F 51.1 °F 72% 30.20 in 10.0 mi Calm Calm - N/A   Partly Cloudy
9:53 PM 57.9 °F 52.0 °F 81% 30.22 in 10.0 mi Calm Calm - N/A   Clear
10:53 PM 57.0 °F 52.0 °F 83% 30.23 in 10.0 mi Calm Calm - N/A   Partly Cloudy
11:53 PM 55.9 °F 52.0 °F 87% 30.23 in 10.0 mi Calm Calm - N/A   Clear